Home > Weather > Pickering > Past weeks

Flag for Canada Weather for the Past 2 Weeks in Pickering, Ontario, Canada

Now
41 °F

Clear.


Feels Like: 41 °F
Forecast: 37 / 56 °F
Wind: 2 mph from North

Location: Toronto Buttonville

Current Time: Apr 30, 2016 at 2:11:07 AM

Latest Report: Apr 30, 2016 at 1:00 AM


Visibility: 15 mi

Pressure: 30.18 "Hg

Humidity: 61%

Dew Point: 28 °F

Location of PickeringLocation

Historic Weather in Pickering — Graph

°F

Pickering Temperature Yesterday

Maximum temperature yesterday: 54 °F (at 4:00 PM)
Minimum temperature yesterday: 41 °F (at 1:00 AM)
Average temperature yesterday: 46 °F

High & Low Weather Summary for the Past Weeks

 TemperatureHumidityPressure
High75 °F (Apr 18, 2:00 PM)94% (Apr 21, 11:00 PM)30.50 "Hg (Apr 21, 11:00 PM)
Low32 °F (Apr 15, 3:00 AM)13% (Apr 20, 5:00 PM)29.74 "Hg (Apr 26, 5:00 AM)
Average47 °F52%30.15 "Hg
* Reported Apr 15 1:00 AM — Apr 30 1:00 AM, Pickering, Weather by CustomWeather, © 2016

Note: Actual official high and low records may vary slightly from our data, if they occured in-between our weather recording intervals... More about our weather records

Advertising

Pickering Weather History for the Previous 24 Hours

Scroll right to see more
 ConditionsComfort  
Time TempWeatherWind HumidityBarometerVisibility
1:00 AM
Sat, Apr 30
41 °FClear.2 mph61%30.18 "Hg15 mi
12:00 AM43 °FClear.2 mph57%30.19 "Hg15 mi
11:00 PM
Fri, Apr 29
43 °FClear.3 mph57%30.16 "Hg15 mi
10:00 PM45 °FPassing clouds.3 mph53%30.16 "Hg15 mi
9:00 PM46 °FPassing clouds.3 mph46%30.16 "Hg15 mi
8:00 PM48 °FScattered clouds.3 mph40%30.12 "Hg15 mi
7:00 PM52 °FScattered clouds.7 mph38%30.11 "Hg15 mi
6:00 PM52 °FPartly sunny.8 mph35%30.09 "Hg15 mi
5:00 PM54 °FScattered clouds.9 mph33%30.06 "Hg15 mi
4:00 PM54 °FBroken clouds.7 mph33%30.08 "Hg15 mi
3:00 PM52 °FMostly cloudy.7 mph35%30.07 "Hg15 mi
2:00 PM52 °FBroken clouds.9 mph30%30.07 "Hg15 mi
1:00 PM52 °FBroken clouds.10 mph35%30.08 "Hg15 mi
12:00 PM48 °FOvercast.9 mph37%30.10 "Hg15 mi
11:45 AM48 °FPartly sunny.12 mph37%30.10 "Hg15 mi
11:00 AM46 °FPartly sunny.7 mph40%30.11 "Hg15 mi
10:00 AM43 °FPartly sunny.8 mph39%30.11 "Hg15 mi
9:00 AM43 °FPartly sunny.10 mph42%30.12 "Hg15 mi
8:00 AM41 °FPartly sunny.9 mph42%30.11 "Hg15 mi
7:00 AM41 °FPassing clouds.7 mph45%30.11 "Hg15 mi
6:00 AM41 °FPassing clouds.6 mph49%30.11 "Hg15 mi
5:00 AM41 °FPassing clouds.3 mph57%30.09 "Hg15 mi
4:00 AM41 °FOvercast.3 mph57%30.10 "Hg15 mi
3:00 AM41 °FOvercast.6 mph57%30.10 "Hg15 mi
2:00 AM43 °FOvercast.7 mph53%30.09 "Hg15 mi
Weather by CustomWeather, © 2016

See weather overviewHow to use our weather pages